Zurück zum Katalog

FALCON 9 R/B

AktivHEO
NORAD 62007·ROCKET BODY·🇺🇸 United States

Gestartet Nov 17, 2024 von Cape Canaveral Space Force Station

Loading…

Nächste Überflüge (nächste 24 Stunden)

TLE

AktuellSource: Space-Track

Epoche: Sep 14, 2026, 03:30 UTC

1 62007U 24212B   26257.14595157  .00000549  00000-0  27712-2 0  9994
2 62007  18.6350  46.3211 7823799 135.7637 323.3615  1.58978047 10535

Verfolge FALCON 9 R/B in Echtzeit mit AllMySat

Download on the App Store